Find Starlink 4592

NORAD ID: 53634 Int'l Des: 2022-104 Owner: SPXS Country: US Constellation: starlink operational
LEOCIRCULAR

Aktuelle Ansicht

3D-Globus wird geladen...

Über Starlink 4592

Beschreibung wird geladen...

Nächste Überflüge

Passes for default location (London). Set your location on the main map for personalized predictions.

Höhenverlauf

Loading altitude history...

Zweizeiliger Elementsatz

1 53634U 22104AY 26149.41669919 .00000447 00000-0 46157-4 0 9999
2 53634 53.1986 221.6224 0001109 61.4290 298.6813 15.08839160208410
Epoch: 29. Mai 2026 • Age: 18 hours

Aktueller Status

Höhe 542.1 km
Geschwindigkeit 7.60 km/s
Subsatellitenpunkt 35.35°N, 57.51°E
Startdatum 28. Aug. 2022
Alter 3.7 years
Typ internet

Technische Details

Klassifizierung Payload
Masse 300.00 kg
Trockenmasse 290.00 kg
Gesamtmasse 300.00 kg
Länge 0.20 m
Durchmesser 2.80 m
Spannweite 9.00 m
Form Box + pan
Hersteller SPXS
Bus-Typ Starlink
Phasenstatus In Orbit
Besitzer/Staat SPXS/US

Most Searched